[[{"header":{"parameterUnit":"m.s-1","parameterCategory":1,"la1":30.2991,"la2":30.254,"lo1":-89.0895,"lo2":-89.0444,"dy":0.0017,"dx":0.0017,"nx":28,"ny":28,"refTime":"2024-06-12T09:00:00:Z","depth":0,"parameterNumber":2,"parameterNumberName":"U-component_of_WINDS"},"data":[0,0,0,0,0,0,0,0,0,0,0,0,0,0,0,0,0,0,0,0,0,0,0,0,0,0,0,0,0,0,0,0,0,0,0,0,0,0,0,0,0,0,0,0,0,0,0,0,0,0,0,0,0,0,0,0,0,0,2.9143,2.9143,0,2.9168,2.9169,2.9169,2.905,2.9047,2.9044,2.904,2.9068,2.9072,2.9076,0,0,0,0,0,0,0,0,0,0,0,0,0,2.8992,2.8995,2.9143,2.9143,2.9143,2.9168,2.9169,2.9169,2.9051,2.9047,2.9043,2.9039,2.9067,2.9072,2.9077,0,0,0,0,0,0,0,0,0,0,0,0,0,2.9042,2.8996,2.9143,2.9087,2.9083,2.9168,2.9169,2.9169,2.9052,2.9047,2.9042,2.9037,2.9066,2.9071,2.9077,2.9218,0,0,2.9095,2.9098,0,0,0,0,0,0,0,0,2.9039,2.9047,2.9095,2.9091,2.9086,2.9101,2.9126,2.9186,2.9053,2.9064,2.904,2.9034,2.9084,2.9088,2.9104,2.9219,2.922,2.9096,2.91,2.9102,2.9104,0,0,0,0,0,0,0,2.9036,2.9045,2.9153,2.9096,2.9091,2.9061,2.9063,2.9137,2.9102,2.9062,2.9054,2.9058,2.908,2.9099,2.9104,2.9221,2.9096,2.9101,2.9105,2.9107,2.9452,2.9457,0,0,0,0,0,0,2.9039,2.9043,2.9152,2.9154,2.9049,2.9068,2.907,2.9101,2.9101,2.9096,2.9063,2.9053,2.9091,2.9097,2.9104,2.9269,2.9102,2.9108,2.9111,2.9447,2.9453,2.9459,0,0,0,0,0,0,2.9037,2.905,2.9151,2.9096,2.9107,2.9077,2.9113,2.9105,2.9123,2.9102,2.9095,2.9088,2.9087,2.9096,2.919,2.9268,2.911,2.9116,2.944,2.9449,2.9456,2.96,0,0,0,0,0,0,2.9033,2.905,2.9103,2.9098,2.911,2.9237,2.9118,2.9109,2.9133,2.912,2.9123,2.9119,2.9084,2.9182,2.9196,2.9274,2.912,2.9433,2.9444,2.9454,2.9588,2.9612,2.9633,0,0,0,0,0,2.9028,2.9143,2.9106,2.912,2.9176,2.9242,2.9248,2.9205,2.914,2.9193,2.9179,2.9119,2.9257,2.9193,2.9208,2.9288,2.9428,2.9441,2.9453,2.9578,2.9608,2.9632,0,0,0,0,0,0,2.9158,2.9141,2.9101,2.9217,2.9232,2.9221,2.9287,2.9238,2.9271,2.9258,2.9203,2.9204,2.9309,2.9307,2.9236,2.9424,2.9331,2.9348,2.9421,2.9449,2.9471,2.947,2.9125,0,0,0,0,0,2.9201,2.9255,2.9237,2.9342,2.9351,2.9318,2.9345,2.931,2.9323,2.9329,2.9322,2.9337,2.9384,2.9416,2.9458,2.9587,2.9586,2.9649,2.9672,2.969,2.9705,2.9774,2.9802,2.9501,2.9501,2.95,0,0,2.9289,2.9286,2.9324,2.9368,2.9375,2.9433,2.9324,2.939,2.9433,2.9339,2.9428,2.9423,2.9437,2.9549,2.9598,2.9551,2.9788,2.9706,2.9721,2.9726,2.9789,2.9818,2.9843,2.9509,2.9508,2.9506,0,0,2.948,2.9483,2.957,2.9579,2.9591,2.9568,2.9589,2.9586,2.958,2.9667,2.9598,2.9648,2.973,2.9742,2.9759,2.9953,2.9899,2.9968,3.0086,3.0153,3.0177,3.0197,3.0268,3.0293,2.9983,2.9983,2.9984,0,2.9588,2.9673,2.9622,2.9693,2.9714,2.9631,2.972,2.9731,2.9756,2.9773,2.972,2.982,2.9823,2.9937,2.9985,3.0001,3.0024,2.9969,3.0177,3.0197,3.0216,3.0282,3.0309,2.9992,2.9991,2.999,2.9989,0,2.9806,2.9865,2.9935,2.9961,2.9989,3.0069,3.0031,3.0066,3.0029,3.0012,3.0102,3.0102,3.0143,3.0167,3.0131,3.0276,3.0247,3.0186,3.0092,3.0254,3.0316,3.034,3.0004,3.0001,2.9998,2.9996,0,0,3.0082,3.0077,3.0104,3.0114,3.012,3.0166,3.0241,3.028,3.0312,3.0331,3.0394,3.0464,3.0408,3.0427,3.0391,3.045,3.0605,3.0382,3.0382,3.0425,3.0765,3.0812,3.0842,3.0568,3.0573,3.0576,3.0765,0,3.027,3.0398,3.0354,3.0485,3.054,3.046,3.0526,3.0537,3.0522,3.0567,3.055,3.0602,3.0523,3.0534,3.0589,3.0575,3.0673,3.056,3.0626,3.0629,3.0627,3.0874,3.0924,3.1102,3.0788,3.0792,3.0795,0,3.0506,3.0535,3.0671,3.0667,3.0688,3.0748,3.078,3.0823,3.0834,3.0819,3.084,3.0792,3.0866,3.077,3.0871,3.0796,3.082,3.0817,3.0823,3.0829,3.0723,3.0888,3.1157,3.1185,3.0832,3.0829,3.0827,0,3.0696,3.0768,3.0858,3.087,3.0867,3.0911,3.0912,3.0917,3.0943,3.0971,3.0987,3.1024,3.1044,3.1073,3.1036,3.097,3.1143,3.1044,3.1133,3.1135,3.1175,3.1173,3.1454,3.1189,3.1188,3.1188,3.1187,0,3.0911,3.0998,3.0943,3.1,3.1094,3.1043,3.1138,3.113,3.1135,3.1189,3.1122,3.1173,3.112,3.1167,3.1138,3.1226,3.1236,3.1226,3.1218,3.1233,3.1235,3.125,3.1237,3.1195,3.1193,3.1192,3.1191,0,3.1139,3.1106,3.12,3.1189,3.1188,3.1259,3.125,3.1301,3.1281,3.135,3.1363,3.1332,3.1383,3.1348,3.14,3.138,3.1497,3.147,3.1494,3.1487,3.1579,3.1571,3.1879,3.1917,3.1627,3.163,3.1632,0,3.128,3.1345,3.134,3.1371,3.1376,3.1426,3.1452,3.1403,3.1433,3.1449,3.1499,3.1544,3.1578,3.1664,3.1646,3.1685,3.166,3.1765,3.1666,3.1679,3.1663,3.166,3.1667,3.1786,3.179,3.1793,3.1795,0,3.1533,3.1513,3.1552,3.1587,3.1619,3.1643,3.1662,3.1691,3.1642,3.1678,3.173,3.1756,3.1808,3.1854,3.1886,3.1887,3.1834,3.1826,3.1849,3.1866,3.1877,3.1873,3.155,3.182,3.1817,3.1815,3.1814,3.1813,3.1723,3.1776,3.1782,3.1828,3.1836,3.1856,3.1903,3.1889,3.193,3.1969,3.1937,3.1998,3.2006,3.2043,3.2051,3.2099,3.2056,3.2089,3.2097,3.2107,3.212,3.1868,3.2104,3.2103,3.2103,3.2102,3.2101,0,3.1974,3.1972,3.2015,3.2043,3.208,3.2024,3.2042,3.2076,3.2131,3.2142,3.2177,3.2235,3.2279,3.2265,3.2304,3.2345,3.2321,3.2357,3.2354,3.2355,3.2156,3.2132,3.2375,3.2375,3.2375,3.2375,3.2375,3.2375,3.2109,3.2197,3.2177,3.2269,3.2267,3.2326,3.2341,3.2358,3.2367,3.2436,3.2472,3.2461,3.2462,3.25,3.2538,3.2533,3.2551,3.2596,3.2582,3.2396,3.2369,3.2344,3.2322,3.26,3.26,3.2777,3.2779,3.278]},{"header":{"parameterUnit":"m.s-1","parameterCategory":1,"la1":30.2991,"la2":30.254,"lo1":-89.0895,"lo2":-89.0444,"dy":0.0017,"dx":0.0017,"nx":28,"ny":28,"refTime":"2024-06-12T09:00:00:Z","depth":0,"parameterNumber":3,"parameterNumberName":"V-component_of_WINDS"},"data":[0,0,0,0,0,0,0,0,0,0,0,0,0,0,0,0,0,0,0,0,0,0,0,0,0,0,0,0,0,0,0,0,0,0,0,0,0,0,0,0,0,0,0,0,0,0,0,0,0,0,0,0,0,0,0,0,0,0,-1.2951,-1.2952,0,-1.3026,-1.3026,-1.3027,-1.3059,-1.3059,-1.3059,-1.3059,-1.3133,-1.3135,-1.3137,0,0,0,0,0,0,0,0,0,0,0,0,0,-1.2835,-1.2837,-1.2951,-1.2952,-1.2953,-1.3025,-1.3026,-1.3027,-1.3059,-1.3059,-1.3059,-1.3059,-1.3133,-1.3135,-1.3138,0,0,0,0,0,0,0,0,0,0,0,0,0,-1.2895,-1.2837,-1.2951,-1.2977,-1.298,-1.3025,-1.3026,-1.3028,-1.3059,-1.3059,-1.3059,-1.3059,-1.3132,-1.3135,-1.3138,-1.3161,0,0,-1.3148,-1.3149,0,0,0,0,0,0,0,0,-1.2891,-1.2899,-1.2972,-1.2976,-1.2979,-1.3033,-1.3013,-1.3072,-1.3059,-1.3029,-1.3059,-1.3059,-1.31,-1.3106,-1.312,-1.3165,-1.3168,-1.3148,-1.315,-1.3151,-1.3152,0,0,0,0,0,0,0,-1.2887,-1.2896,-1.298,-1.2973,-1.2978,-1.2985,-1.2994,-1.3024,-1.3065,-1.3032,-1.3034,-1.3043,-1.3102,-1.3117,-1.3122,-1.3169,-1.3148,-1.3151,-1.3153,-1.3154,-1.3237,-1.3237,0,0,0,0,0,0,-1.2879,-1.2892,-1.2978,-1.2983,-1.2934,-1.2987,-1.2997,-1.3016,-1.3064,-1.3072,-1.3043,-1.3044,-1.3112,-1.3118,-1.3125,-1.3156,-1.3151,-1.3154,-1.3156,-1.3237,-1.3237,-1.3237,0,0,0,0,0,0,-1.2876,-1.2886,-1.2975,-1.2938,-1.295,-1.299,-1.3011,-1.3017,-1.3033,-1.3073,-1.308,-1.3051,-1.3112,-1.312,-1.3152,-1.3159,-1.3155,-1.3158,-1.3236,-1.3237,-1.3237,-1.3217,0,0,0,0,0,0,-1.2873,-1.2885,-1.2894,-1.2938,-1.2952,-1.3001,-1.3011,-1.3019,-1.3038,-1.304,-1.3082,-1.3089,-1.3112,-1.3147,-1.3155,-1.3163,-1.3161,-1.3236,-1.3236,-1.3237,-1.3217,-1.3216,-1.3216,0,0,0,0,0,-1.2868,-1.2885,-1.2895,-1.2905,-1.2964,-1.3002,-1.3009,-1.3036,-1.3039,-1.3048,-1.3074,-1.3088,-1.3157,-1.315,-1.316,-1.3168,-1.3235,-1.3236,-1.3237,-1.3217,-1.3217,-1.3216,0,0,0,0,0,0,-1.284,-1.2891,-1.2902,-1.2934,-1.2963,-1.3007,-1.302,-1.3034,-1.3063,-1.3064,-1.3096,-1.3105,-1.3134,-1.3154,-1.3146,-1.3193,-1.3197,-1.32,-1.3179,-1.3179,-1.3178,-1.3173,-1.3163,0,0,0,0,0,-1.2837,-1.2864,-1.2907,-1.293,-1.2945,-1.298,-1.2997,-1.3015,-1.3047,-1.3059,-1.3087,-1.3117,-1.3145,-1.3163,-1.3191,-1.322,-1.323,-1.3231,-1.323,-1.323,-1.3231,-1.3249,-1.325,-1.324,-1.324,-1.324,0,0,-1.2832,-1.2863,-1.2878,-1.2925,-1.295,-1.2977,-1.299,-1.3017,-1.3037,-1.3063,-1.3095,-1.3117,-1.3152,-1.3182,-1.3197,-1.32,-1.3236,-1.3231,-1.323,-1.3232,-1.325,-1.325,-1.3251,-1.324,-1.324,-1.324,0,0,-1.2836,-1.2862,-1.2885,-1.291,-1.2948,-1.2972,-1.2977,-1.3019,-1.3035,-1.3068,-1.3088,-1.3112,-1.316,-1.3185,-1.3203,-1.3218,-1.3231,-1.3226,-1.3223,-1.324,-1.324,-1.3241,-1.3247,-1.3248,-1.3228,-1.3228,-1.3228,0,-1.2825,-1.2866,-1.2895,-1.2921,-1.2942,-1.2968,-1.2991,-1.3014,-1.3059,-1.3072,-1.3075,-1.3136,-1.3162,-1.3199,-1.3202,-1.3217,-1.3224,-1.3221,-1.3238,-1.3239,-1.324,-1.3246,-1.3248,-1.3227,-1.3227,-1.3227,-1.3227,0,-1.285,-1.2878,-1.2892,-1.2936,-1.2958,-1.2982,-1.3015,-1.3034,-1.305,-1.3073,-1.3107,-1.3138,-1.3174,-1.3184,-1.32,-1.3223,-1.3224,-1.3232,-1.3236,-1.324,-1.3246,-1.3248,-1.3225,-1.3226,-1.3226,-1.3226,0,0,-1.2837,-1.2898,-1.2903,-1.2923,-1.2967,-1.299,-1.3015,-1.3051,-1.3066,-1.3097,-1.3119,-1.316,-1.3168,-1.3189,-1.3208,-1.3223,-1.3233,-1.3229,-1.323,-1.3229,-1.3261,-1.3254,-1.3256,-1.3242,-1.3243,-1.3243,-1.3258,0,-1.2848,-1.2896,-1.2923,-1.296,-1.2987,-1.3012,-1.3035,-1.3064,-1.3086,-1.3112,-1.3136,-1.3165,-1.3173,-1.3186,-1.3202,-1.3228,-1.3239,-1.3227,-1.3263,-1.3264,-1.3253,-1.3259,-1.3253,-1.3265,-1.326,-1.3261,-1.3261,0,-1.2866,-1.2897,-1.2936,-1.2978,-1.2991,-1.301,-1.3046,-1.307,-1.3104,-1.3119,-1.3143,-1.3162,-1.3191,-1.3193,-1.3233,-1.3224,-1.324,-1.3255,-1.3256,-1.3261,-1.3262,-1.3264,-1.3269,-1.3271,-1.3265,-1.3264,-1.3264,0,-1.2853,-1.2904,-1.2935,-1.2952,-1.3001,-1.3015,-1.3036,-1.307,-1.309,-1.3121,-1.3134,-1.3167,-1.3185,-1.321,-1.3238,-1.3237,-1.3275,-1.3279,-1.3288,-1.3287,-1.3294,-1.3293,-1.3303,-1.3305,-1.3305,-1.3305,-1.3305,0,-1.2862,-1.2885,-1.293,-1.2949,-1.2976,-1.3007,-1.3033,-1.3056,-1.3086,-1.311,-1.3133,-1.3155,-1.319,-1.3216,-1.3238,-1.3267,-1.3275,-1.3288,-1.3294,-1.3286,-1.3284,-1.3297,-1.3297,-1.3305,-1.3305,-1.3305,-1.3305,0,-1.2852,-1.2883,-1.2918,-1.2963,-1.2974,-1.2992,-1.303,-1.3049,-1.3073,-1.3103,-1.3112,-1.3149,-1.3181,-1.3211,-1.3253,-1.3268,-1.3297,-1.3305,-1.3286,-1.3289,-1.3296,-1.3295,-1.3314,-1.3318,-1.3317,-1.3317,-1.3317,0,-1.2855,-1.2874,-1.2921,-1.2939,-1.296,-1.2988,-1.3009,-1.304,-1.3061,-1.3102,-1.3116,-1.3149,-1.3178,-1.3227,-1.3258,-1.3291,-1.3299,-1.3303,-1.3304,-1.3296,-1.3299,-1.3298,-1.33,-1.3302,-1.3302,-1.3302,-1.3302,0,-1.2858,-1.2873,-1.2902,-1.2937,-1.2961,-1.299,-1.3019,-1.3032,-1.307,-1.3091,-1.3125,-1.3147,-1.3191,-1.3224,-1.326,-1.3282,-1.3298,-1.3302,-1.3305,-1.3298,-1.3286,-1.3293,-1.3284,-1.3301,-1.3301,-1.3301,-1.3301,-1.3301,-1.2855,-1.2873,-1.2909,-1.2941,-1.2967,-1.2994,-1.3014,-1.3041,-1.307,-1.3108,-1.3125,-1.3159,-1.3193,-1.3243,-1.3265,-1.3291,-1.3295,-1.33,-1.3302,-1.3303,-1.3301,-1.3282,-1.3298,-1.3298,-1.3298,-1.3298,-1.3298,0,-1.2859,-1.2884,-1.2913,-1.2954,-1.2979,-1.2993,-1.3027,-1.3047,-1.3076,-1.3107,-1.3135,-1.3173,-1.3206,-1.3239,-1.3274,-1.3288,-1.3297,-1.3296,-1.3296,-1.33,-1.3296,-1.3289,-1.3289,-1.3289,-1.3289,-1.3289,-1.3289,-1.3289,-1.2864,-1.2895,-1.2915,-1.2959,-1.2984,-1.3017,-1.3035,-1.306,-1.3085,-1.3127,-1.3155,-1.3177,-1.3209,-1.3246,-1.3276,-1.3285,-1.3297,-1.3294,-1.3305,-1.33,-1.3301,-1.3301,-1.3295,-1.3296,-1.3296,-1.3308,-1.3308,-1.3308]}]]